[[{"header":{"parameterUnit":"m.s-1","parameterCategory":1,"la1":30.2991,"la2":30.254,"lo1":-89.0895,"lo2":-89.0444,"dy":0.0017,"dx":0.0017,"nx":28,"ny":28,"refTime":"2024-04-29T21:00:00:Z","depth":0,"parameterNumber":2,"parameterNumberName":"U-component_of_WINDS"},"data":[0,0,0,0,0,0,0,0,0,0,0,0,0,0,0,0,0,0,0,0,0,0,0,0,0,0,0,0,0,0,0,0,0,0,0,0,0,0,0,0,0,0,0,0,0,0,0,0,0,0,0,0,0,0,0,0,0,0,-0.9761,-0.976,0,-0.9692,-0.9691,-0.969,-0.9623,-0.9622,-0.9621,-0.9621,-0.9548,-0.9547,-0.9546,0,0,0,0,0,0,0,0,0,0,0,0,0,-0.9832,-0.9831,-0.9761,-0.976,-0.9759,-0.9692,-0.9691,-0.969,-0.9623,-0.9622,-0.9621,-0.962,-0.9549,-0.9547,-0.9546,0,0,0,0,0,0,0,0,0,0,0,0,0,-0.9786,-0.9831,-0.9761,-0.9718,-0.9713,-0.9692,-0.9691,-0.969,-0.9623,-0.9622,-0.9621,-0.962,-0.9549,-0.9547,-0.9546,-0.9561,0,0,-0.954,-0.954,0,0,0,0,0,0,0,0,-0.9789,-0.9784,-0.9725,-0.9721,-0.9716,-0.9665,-0.9689,-0.9646,-0.9624,-0.9658,-0.962,-0.9619,-0.9588,-0.9583,-0.9573,-0.9558,-0.9555,-0.954,-0.9539,-0.9539,-0.9538,0,0,0,0,0,0,0,-0.9792,-0.9786,-0.9733,-0.9724,-0.9719,-0.9701,-0.9693,-0.9681,-0.9631,-0.9654,-0.9649,-0.9642,-0.9585,-0.9575,-0.957,-0.9553,-0.954,-0.9539,-0.9538,-0.9537,-0.9544,-0.9545,0,0,0,0,0,0,-0.9802,-0.9789,-0.9736,-0.9731,-0.975,-0.9701,-0.9692,-0.9682,-0.9631,-0.9622,-0.9643,-0.9639,-0.9578,-0.9573,-0.9568,-0.958,-0.9539,-0.9537,-0.9536,-0.9543,-0.9544,-0.9545,0,0,0,0,0,0,-0.9804,-0.9798,-0.9738,-0.9759,-0.975,-0.9701,-0.9691,-0.9682,-0.9671,-0.9622,-0.9613,-0.9642,-0.9577,-0.957,-0.9562,-0.9576,-0.9536,-0.9535,-0.9541,-0.9543,-0.9545,-0.9606,0,0,0,0,0,0,-0.9806,-0.9799,-0.9805,-0.976,-0.9749,-0.9736,-0.9692,-0.9681,-0.9668,-0.9663,-0.9619,-0.961,-0.9575,-0.9565,-0.9561,-0.9573,-0.9533,-0.954,-0.9542,-0.9544,-0.9603,-0.961,-0.9616,0,0,0,0,0,-0.9809,-0.9826,-0.9806,-0.98,-0.9756,-0.9737,-0.9731,-0.9691,-0.967,-0.9675,-0.9643,-0.9611,-0.9576,-0.9565,-0.9559,-0.9572,-0.9539,-0.9541,-0.9544,-0.96,-0.9608,-0.9616,0,0,0,0,0,0,-0.9875,-0.9819,-0.9797,-0.9799,-0.9773,-0.9725,-0.9731,-0.9702,-0.9681,-0.9676,-0.9627,-0.9617,-0.9615,-0.9593,-0.9582,-0.9582,-0.9553,-0.9554,-0.9597,-0.9605,-0.9611,-0.9616,-0.9532,0,0,0,0,0,-0.9889,-0.9879,-0.9831,-0.9838,-0.9826,-0.9781,-0.9771,-0.9742,-0.9713,-0.9702,-0.9669,-0.9642,-0.9624,-0.9613,-0.9594,-0.9599,-0.9587,-0.9605,-0.9611,-0.9617,-0.9619,-0.9616,-0.9623,-0.9554,-0.9554,-0.9554,0,0,-0.992,-0.9888,-0.9885,-0.985,-0.9826,-0.9815,-0.9772,-0.9763,-0.9754,-0.97,-0.969,-0.9666,-0.9631,-0.9629,-0.9627,-0.961,-0.9635,-0.962,-0.9625,-0.9624,-0.962,-0.9626,-0.9632,-0.9556,-0.9556,-0.9555,0,0,-0.9969,-0.9945,-0.9947,-0.9924,-0.9888,-0.9858,-0.9859,-0.9815,-0.9796,-0.9786,-0.9745,-0.9732,-0.9704,-0.968,-0.9664,-0.9702,-0.9671,-0.9697,-0.9732,-0.973,-0.9736,-0.974,-0.9751,-0.9756,-0.9699,-0.97,-0.97,0,-1.0011,-0.9993,-0.9951,-0.9944,-0.9929,-0.988,-0.988,-0.986,-0.982,-0.981,-0.9793,-0.9754,-0.9727,-0.9717,-0.9726,-0.9716,-0.9713,-0.9702,-0.9738,-0.9742,-0.9746,-0.9756,-0.9761,-0.9703,-0.9702,-0.9702,-0.9702,0,-1.0045,-1.0034,-1.0039,-1.0002,-0.9988,-0.9985,-0.994,-0.9931,-0.9903,-0.9874,-0.9862,-0.9828,-0.9801,-0.9796,-0.977,-0.9782,-0.9773,-0.9748,-0.9717,-0.9757,-0.9765,-0.9769,-0.9708,-0.9706,-0.9705,-0.9705,0,0,-1.0134,-1.0072,-1.0075,-1.0056,-1.0013,-1.0003,-0.9996,-0.9969,-0.9961,-0.9935,-0.9926,-0.9902,-0.9878,-0.986,-0.983,-0.9829,-0.9857,-0.9803,-0.9801,-0.9812,-0.9866,-0.9884,-0.9889,-0.9837,-0.9837,-0.9838,-0.9868,0,-1.0174,-1.0161,-1.0121,-1.0119,-1.0106,-1.0059,-1.0052,-1.0024,-0.9997,-0.9981,-0.995,-0.9932,-0.9903,-0.9891,-0.9888,-0.9855,-0.9867,-0.9852,-0.9826,-0.9826,-0.9835,-0.9894,-0.9913,-0.9943,-0.9871,-0.9872,-0.9872,0,-1.022,-1.0196,-1.0193,-1.0148,-1.0141,-1.0137,-1.0107,-1.0093,-1.006,-1.0039,-1.0018,-0.9984,-0.9972,-0.9945,-0.9926,-0.9917,-0.9904,-0.9886,-0.9886,-0.9881,-0.9851,-0.9888,-0.9952,-0.9956,-0.9877,-0.9877,-0.9877,0,-1.0282,-1.025,-1.0243,-1.0228,-1.0177,-1.0174,-1.0152,-1.0117,-1.0103,-1.0077,-1.0066,-1.0039,-1.0024,-1.0003,-0.9962,-0.9946,-0.9947,-0.9917,-0.9928,-0.9929,-0.993,-0.993,-0.9991,-0.9924,-0.9924,-0.9924,-0.9924,0,-1.033,-1.0329,-1.027,-1.0265,-1.0262,-1.0216,-1.0214,-1.0187,-1.0156,-1.0144,-1.0101,-1.0091,-1.0038,-1.002,-0.9988,-0.9976,-0.997,-0.9952,-0.9943,-0.9954,-0.9957,-0.9944,-0.9941,-0.9925,-0.9925,-0.9925,-0.9925,0,-1.0399,-1.0359,-1.0348,-1.03,-1.0287,-1.0287,-1.0244,-1.0237,-1.0206,-1.0192,-1.0185,-1.0137,-1.0114,-1.0071,-1.0036,-1.0014,-1.0008,-0.9994,-1.002,-1.0014,-1.0027,-1.0026,-1.0081,-1.0084,-1.0018,-1.0019,-1.0019,0,-1.0432,-1.043,-1.0381,-1.037,-1.035,-1.0333,-1.0318,-1.0272,-1.0258,-1.0218,-1.0215,-1.0189,-1.0165,-1.013,-1.0091,-1.0063,-1.0046,-1.0067,-1.0042,-1.0053,-1.0044,-1.0044,-1.0042,-1.0073,-1.0074,-1.0075,-1.0075,0,-1.0493,-1.0473,-1.0453,-1.0426,-1.0409,-1.0385,-1.0359,-1.0352,-1.03,-1.0285,-1.0261,-1.0243,-1.0207,-1.018,-1.0147,-1.0122,-1.0089,-1.0084,-1.0084,-1.0096,-1.011,-1.01,-1.0034,-1.0082,-1.0082,-1.0081,-1.0081,-1.0081,-1.0543,-1.0538,-1.0502,-1.0481,-1.0456,-1.0432,-1.0423,-1.039,-1.037,-1.0337,-1.0311,-1.0289,-1.0252,-1.0203,-1.0181,-1.0161,-1.0146,-1.0148,-1.0148,-1.0148,-1.0152,-1.0114,-1.0155,-1.0155,-1.0154,-1.0154,-1.0154,0,-1.06,-1.0574,-1.0555,-1.052,-1.0502,-1.0474,-1.0443,-1.043,-1.0411,-1.038,-1.0358,-1.0329,-1.0302,-1.026,-1.023,-1.0222,-1.0206,-1.0215,-1.0215,-1.0209,-1.0169,-1.017,-1.0229,-1.0229,-1.0229,-1.0229,-1.0229,-1.0229,-1.0627,-1.0617,-1.0593,-1.0569,-1.0542,-1.0521,-1.0505,-1.0482,-1.0457,-1.0427,-1.0405,-1.0378,-1.0342,-1.0308,-1.0282,-1.027,-1.0259,-1.0273,-1.0256,-1.0219,-1.0212,-1.0206,-1.0206,-1.0272,-1.0272,-1.0298,-1.0298,-1.0298]},{"header":{"parameterUnit":"m.s-1","parameterCategory":1,"la1":30.2991,"la2":30.254,"lo1":-89.0895,"lo2":-89.0444,"dy":0.0017,"dx":0.0017,"nx":28,"ny":28,"refTime":"2024-04-29T21:00:00:Z","depth":0,"parameterNumber":3,"parameterNumberName":"V-component_of_WINDS"},"data":[0,0,0,0,0,0,0,0,0,0,0,0,0,0,0,0,0,0,0,0,0,0,0,0,0,0,0,0,0,0,0,0,0,0,0,0,0,0,0,0,0,0,0,0,0,0,0,0,0,0,0,0,0,0,0,0,0,0,1.3698,1.3698,0,1.3746,1.3747,1.3747,1.3778,1.3778,1.3779,1.3779,1.3828,1.3829,1.383,0,0,0,0,0,0,0,0,0,0,0,0,0,1.3634,1.3635,1.3698,1.3698,1.3699,1.3746,1.3747,1.3747,1.3778,1.3778,1.3779,1.3779,1.3828,1.3829,1.3831,0,0,0,0,0,0,0,0,0,0,0,0,0,1.367,1.3635,1.3698,1.372,1.3723,1.3746,1.3747,1.3748,1.3778,1.3778,1.3779,1.3779,1.3827,1.3829,1.3831,1.3836,0,0,1.3836,1.3837,0,0,0,0,0,0,0,0,1.3667,1.3672,1.3716,1.3719,1.3721,1.3756,1.3742,1.3777,1.3778,1.3757,1.3779,1.3779,1.3804,1.3808,1.3816,1.3838,1.384,1.3836,1.3837,1.3838,1.3838,0,0,0,0,0,0,0,1.3665,1.367,1.3717,1.3717,1.372,1.3728,1.3734,1.3749,1.3778,1.3759,1.3761,1.3767,1.3806,1.3814,1.3818,1.3841,1.3836,1.3838,1.3839,1.3839,1.3871,1.3871,0,0,0,0,0,0,1.3659,1.3668,1.3715,1.3718,1.3695,1.3729,1.3735,1.3745,1.3778,1.3784,1.3766,1.3768,1.3811,1.3816,1.3819,1.3829,1.3838,1.3839,1.384,1.3872,1.3871,1.3871,0,0,0,0,0,0,1.3657,1.3663,1.3713,1.3694,1.3701,1.373,1.3741,1.3746,1.3755,1.3784,1.3789,1.377,1.3812,1.3817,1.3832,1.3831,1.384,1.3842,1.3872,1.3871,1.3871,1.3846,0,0,0,0,0,0,1.3655,1.3662,1.3664,1.3694,1.3702,1.3724,1.374,1.3746,1.3757,1.376,1.3789,1.3794,1.3812,1.3829,1.3834,1.3833,1.3843,1.3872,1.3872,1.3871,1.3847,1.3845,1.3843,0,0,0,0,0,1.3653,1.3654,1.3664,1.3669,1.3704,1.3724,1.3729,1.375,1.3757,1.376,1.3779,1.3793,1.383,1.383,1.3836,1.3836,1.3872,1.3872,1.3871,1.3848,1.3845,1.3843,0,0,0,0,0,0,1.3623,1.3658,1.3669,1.368,1.3699,1.3729,1.3733,1.3747,1.3764,1.3766,1.3792,1.3798,1.381,1.3825,1.3824,1.3843,1.3853,1.3854,1.3833,1.3831,1.3829,1.3825,1.3845,0,0,0,0,0,1.3618,1.363,1.3661,1.3668,1.3677,1.3703,1.3713,1.3728,1.3748,1.3756,1.3777,1.3796,1.3813,1.3823,1.3839,1.385,1.3857,1.3852,1.385,1.3849,1.3849,1.3857,1.3856,1.387,1.387,1.387,0,0,1.3606,1.3628,1.3634,1.3662,1.3679,1.3692,1.371,1.3722,1.3733,1.3758,1.3774,1.379,1.3813,1.3826,1.3833,1.3839,1.3847,1.3848,1.3846,1.3848,1.3856,1.3855,1.3854,1.387,1.387,1.387,0,0,1.3593,1.361,1.3618,1.3635,1.366,1.3678,1.368,1.3709,1.372,1.3736,1.3756,1.3769,1.3797,1.3813,1.3825,1.3821,1.3835,1.3826,1.3815,1.3822,1.3821,1.3821,1.382,1.3819,1.3826,1.3826,1.3826,0,1.3576,1.3597,1.3621,1.3633,1.3645,1.367,1.3679,1.3694,1.3723,1.3731,1.3737,1.3773,1.3791,1.3809,1.3808,1.3817,1.3821,1.3822,1.382,1.3819,1.3819,1.3818,1.3818,1.3824,1.3825,1.3825,1.3825,0,1.3575,1.3589,1.3593,1.3621,1.3634,1.3644,1.3671,1.3681,1.3696,1.3713,1.373,1.3753,1.3775,1.3781,1.3795,1.3801,1.3804,1.3815,1.3825,1.3815,1.3816,1.3816,1.3823,1.3823,1.3824,1.3824,0,0,1.3542,1.3585,1.3586,1.36,1.363,1.3642,1.3654,1.3677,1.3685,1.3705,1.3717,1.3741,1.3751,1.3765,1.3781,1.3788,1.3785,1.3798,1.3799,1.3795,1.3795,1.3786,1.3786,1.3795,1.3795,1.3795,1.3793,0,1.3534,1.3557,1.358,1.3595,1.3609,1.3634,1.3645,1.3665,1.3683,1.3698,1.3717,1.3734,1.3746,1.3755,1.3763,1.3783,1.3785,1.3784,1.3806,1.3807,1.3799,1.3786,1.3777,1.3774,1.3793,1.3793,1.3793,0,1.3526,1.3546,1.3562,1.3593,1.36,1.3609,1.3633,1.3647,1.3671,1.3683,1.37,1.3718,1.3733,1.3743,1.3765,1.3764,1.3775,1.3787,1.3787,1.379,1.3799,1.3788,1.3773,1.3773,1.3793,1.3793,1.3793,0,1.3501,1.3531,1.3546,1.3557,1.3593,1.3599,1.3615,1.3639,1.3652,1.3673,1.3681,1.3704,1.3716,1.3733,1.3757,1.3761,1.3777,1.3788,1.3789,1.3788,1.379,1.3789,1.3776,1.3797,1.3797,1.3797,1.3797,0,1.3489,1.3498,1.3535,1.3544,1.3556,1.3583,1.3594,1.3612,1.3634,1.3647,1.3671,1.3683,1.3714,1.373,1.3749,1.3766,1.3771,1.3782,1.3787,1.378,1.3778,1.3787,1.3788,1.3797,1.3797,1.3797,1.3797,0,1.3462,1.3487,1.3504,1.3538,1.3547,1.3554,1.3583,1.3593,1.3613,1.363,1.3635,1.3666,1.3687,1.3713,1.3742,1.3755,1.3769,1.3777,1.3761,1.3764,1.3763,1.3763,1.3755,1.3756,1.3775,1.3775,1.3775,0,1.3452,1.346,1.3495,1.3505,1.352,1.3537,1.3551,1.3578,1.3591,1.3621,1.3628,1.3651,1.367,1.3702,1.3728,1.375,1.3759,1.3755,1.3762,1.3755,1.3759,1.3758,1.376,1.3752,1.3752,1.3751,1.3751,0,1.3432,1.3445,1.3463,1.3486,1.3501,1.3521,1.3542,1.3549,1.3582,1.3595,1.3617,1.3632,1.3663,1.3685,1.3712,1.3729,1.3746,1.3749,1.375,1.3743,1.3734,1.3739,1.3756,1.3749,1.3749,1.3749,1.3749,1.3749,1.3413,1.3422,1.3449,1.3469,1.3487,1.3507,1.3518,1.354,1.3559,1.3585,1.3601,1.3623,1.3649,1.3687,1.3703,1.3721,1.3727,1.3729,1.373,1.373,1.3728,1.3731,1.3726,1.3726,1.3726,1.3726,1.3727,0,1.3395,1.3413,1.3432,1.346,1.3477,1.3492,1.3517,1.3529,1.3548,1.3571,1.359,1.3616,1.3639,1.3667,1.3692,1.3701,1.371,1.3707,1.3706,1.371,1.372,1.3717,1.3699,1.3699,1.3699,1.3699,1.3699,1.3699,1.3387,1.3403,1.3419,1.3446,1.3465,1.3486,1.3499,1.3517,1.3536,1.3564,1.3583,1.3602,1.3627,1.3655,1.3677,1.3685,1.3693,1.3688,1.3698,1.3707,1.3709,1.3711,1.3708,1.3689,1.3689,1.3686,1.3686,1.3686]}]]